Weather History for Swansboro, NC

Change the Weather History Date:

Saturday, October 19, 2013

  Actual Average (KNKT) Record (KNKT)
Temperature  
Mean Temperature 70 °F -  
Max Temperature 75 °F 70 °F 86 °F (2007)
Min Temperature 66 °F 50 °F 44 °F (2002)
Cooling Degree Days 6    
Growing Degree Days 20 (Base 50)    
Moisture  
Dew Point 68 °F    
Average Humidity 90    
Maximum Humidity 94    
Minimum Humidity 81    
Precipitation  
Precipitation 0.40 in - - ()
Sea Level Pressure  
Sea Level Pressure 29.92 in    
Wind  
Wind Speed 3 mph (WSW)    
Max Wind Speed 8 mph    
Max Gust Speed -    
Visibility 6 miles    
Events Rain    
Averages and records for this station are not official NWS values.
T = Trace of Precipitation, MM = Missing Value Source: NWS Daily Summary

Daily Weather History Graph

Daily Weather History Graph

Search for Another Location

Airport:

Trip Planner

Search our weather history database for the weather conditions in past years. The results will help you decide how hot, cold, wet, or windy it might be!

Date:

Astronomy

Oct. 19, 2013 Rise Set
Actual Time 7:17 AM EDT 6:28 PM EDT
Civil Twilight 6:51 AM EDT 6:53 PM EDT
Nautical Twilight 6:22 AM EDT 7:23 PM EDT
Astronomical Twilight 5:53 AM EDT 7:52 PM EDT
Moon 6:57 PM EDT (10/19) 7:50 AM EDT (10/19)
Length of Visible Light 12h 01m
Length of Day
11h 10m
Waxing Gibbous, 99% of the Moon is Illuminated
Oct 19
Waxing Gibbous
Oct 26
Last Quarter
Nov 3
New
Nov 10
First Quarter
Nov 17
Full

Hourly Weather History & Observations

Time (EDT) Temp. Dew Point Humidity Pressure Visibility Wind Dir Wind Speed Gust Speed Precip Events Conditions
12:40 AM 69.1 °F 66.0 °F 90% 29.95 in 7.0 mi NE 5.8 mph - 0.00 in Rain Light Rain
12:48 AM 69.1 °F 66.0 °F 90% 29.95 in 7.0 mi NE 3.5 mph - 0.00 in   Overcast
12:57 AM 69.1 °F 66.0 °F 90% 29.97 in 5.0 mi ESE 4.6 mph - 0.01 in Rain Light Rain
1:03 AM 69.1 °F 66.0 °F 90% 29.95 in 1.8 mi ENE 4.6 mph - 0.11 in Rain Heavy Rain
1:15 AM 69.1 °F 66.0 °F 90% 29.95 in 3.0 mi NE 3.5 mph - 0.15 in Rain Light Rain
1:29 AM 68.0 °F 66.0 °F 93% 29.95 in 1.8 mi Calm Calm - 0.24 in Rain Heavy Rain
1:48 AM 68.0 °F 66.0 °F 93% 29.95 in 2.5 mi NW 3.5 mph - 0.36 in Rain Light Rain
1:55 AM 68.0 °F 66.2 °F 94% 29.95 in 8.0 mi Variable 4.6 mph - 0.36 in   Overcast
1:57 AM 68.0 °F 66.0 °F 93% 29.96 in 8.0 mi West 5.8 mph - 0.36 in   Overcast
2:04 AM 68.0 °F 66.0 °F 93% 29.94 in 8.0 mi Calm Calm - N/A   Overcast
2:20 AM 68.0 °F 66.0 °F 93% 29.94 in 9.0 mi Calm Calm - N/A   Overcast
2:57 AM 68.0 °F 66.0 °F 93% 29.94 in 9.0 mi North 3.5 mph - N/A   Overcast
3:57 AM 68.0 °F 66.0 °F 93% 29.93 in 10.0 mi North 3.5 mph - N/A   Overcast
4:35 AM 68.0 °F 64.9 °F 90% 29.92 in 7.0 mi NW 4.6 mph - N/A   Scattered Clouds
4:57 AM 68.0 °F 64.9 °F 90% 29.93 in 7.0 mi Calm Calm - N/A   Scattered Clouds
5:09 AM 68.0 °F 66.0 °F 93% 29.92 in 7.0 mi Calm Calm - N/A   Mostly Cloudy
5:22 AM 68.0 °F 64.9 °F 90% 29.92 in 8.0 mi Calm Calm - N/A   Overcast
5:31 AM 68.0 °F 64.0 °F 87% 29.92 in 8.0 mi Calm Calm - N/A   Mostly Cloudy
5:57 AM 66.9 °F 64.0 °F 90% 29.93 in 5.0 mi Calm Calm - N/A   Overcast
6:57 AM - - N/A% 29.94 in 6.0 mi Calm Calm - N/A   Haze
7:57 AM - - N/A% 29.95 in 6.0 mi Calm Calm - N/A   Haze
8:16 AM - - N/A% 29.94 in 6.0 mi Calm Calm - N/A   Haze
8:57 AM - - N/A% 29.96 in 5.0 mi Calm Calm - N/A   Haze
9:11 AM 71.1 °F 69.1 °F 93% 29.94 in 5.0 mi Calm Calm - N/A   Overcast
9:23 AM 71.1 °F 68.0 °F 90% 29.94 in 5.0 mi Calm Calm - N/A   Overcast
9:53 AM 71.6 °F 68.0 °F 88% 29.94 in 5.0 mi Calm Calm - N/A   Overcast
9:57 AM 72.0 °F 68.0 °F 87% 29.95 in 5.0 mi Calm Calm - N/A   Overcast
10:28 AM 73.0 °F 70.0 °F 90% 29.93 in 7.0 mi WNW 3.5 mph - N/A   Overcast
10:50 AM 75.0 °F 69.1 °F 82% 29.92 in 9.0 mi Calm Calm - N/A   Overcast
10:57 AM 73.9 °F 70.0 °F 87% 29.94 in 9.0 mi Calm Calm - N/A   Overcast
11:26 AM 75.0 °F 71.1 °F 87% 29.92 in 9.0 mi Variable 3.5 mph - N/A   Mostly Cloudy
11:57 AM 75.0 °F 69.1 °F 82% 29.94 in 10.0 mi SW 4.6 mph - N/A   Overcast
12:52 PM 73.4 °F 69.8 °F 88% 29.91 in 2.5 mi SSW 4.6 mph - 0.02 in Rain Light Rain
12:57 PM 73.0 °F 69.1 °F 87% 29.92 in 1.8 mi Calm Calm - 0.02 in Rain Rain
1:04 PM 73.0 °F 69.1 °F 87% 29.91 in 3.0 mi SW 3.5 mph - 0.00 in Rain Light Rain
1:57 PM 72.0 °F 70.0 °F 93% 29.90 in 3.0 mi WSW 3.5 mph - 0.01 in Rain Light Rain
2:11 PM 72.0 °F 69.1 °F 91% 29.88 in 5.0 mi SW 3.5 mph - 0.00 in   Overcast
2:57 PM 73.0 °F 70.0 °F 90% 29.88 in 4.0 mi Calm Calm - 0.00 in   Overcast
3:50 PM 73.0 °F 70.0 °F 90% 29.86 in 5.0 mi SSW 5.8 mph - N/A   Overcast
3:57 PM 73.0 °F 70.0 °F 90% 29.88 in 5.0 mi West 3.5 mph - N/A   Overcast
4:29 PM 73.9 °F 70.0 °F 87% 29.86 in 6.0 mi WSW 4.6 mph - 0.00 in Rain Light Rain
4:36 PM 73.0 °F 69.1 °F 87% 29.86 in 7.0 mi WSW 3.5 mph - 0.00 in   Mostly Cloudy
4:57 PM 73.9 °F 69.1 °F 85% 29.88 in 7.0 mi SW 6.9 mph - 0.00 in   Scattered Clouds
5:17 PM 73.0 °F 69.1 °F 87% 29.87 in 7.0 mi SW 5.8 mph - N/A   Mostly Cloudy
5:22 PM 73.0 °F 69.1 °F 87% 29.87 in 7.0 mi SW 5.8 mph - N/A   Mostly Cloudy
5:39 PM 73.0 °F 69.1 °F 87% 29.87 in 6.0 mi SW 5.8 mph - N/A   Overcast
5:57 PM 72.0 °F 69.1 °F 91% 29.88 in 6.0 mi SW 4.6 mph - N/A   Mostly Cloudy
6:57 PM 72.0 °F 69.1 °F 91% 29.88 in 6.0 mi SW 4.6 mph - N/A   Mostly Cloudy
7:57 PM 72.0 °F 69.1 °F 91% 29.89 in 6.0 mi SW 4.6 mph - N/A   Scattered Clouds
8:57 PM 72.0 °F 70.0 °F 93% 29.90 in 6.0 mi Calm Calm - N/A   Scattered Clouds
9:57 PM 72.0 °F 70.0 °F 93% 29.91 in 5.0 mi Calm Calm - 0.00 in Rain Light Rain
10:57 PM 72.0 °F 69.1 °F 91% 29.91 in 7.0 mi West 3.5 mph - 0.00 in   Clear
11:57 PM 71.1 °F 64.9 °F 81% 29.91 in 10.0 mi NW 8.1 mph - N/A   Overcast